Date String (YYYY-MM-DD hh:mm:ss) UTC,Instrument flags,absolute air pressure of the measurement (hPa),sample flow rate (lpm),inlet stack bypass flow (lpm),air temperature of the measurement (°C),ambient temperature measured by the external sensor (°C),aerosol sample conditioner tube jacket temperature (°C),OPC LED temperature (°C),internal box temperature (°C),relative humidity of the measurement (%),span deviation,mass concentration of particles derived from Lorenz-Mie calculation of OPC scattering (μg/m³),mass concentration of particles derived from Lorenz-Mie calculation of OPC scattering (μg/m³),mass concentration of particles derived from Lorenz-Mie calculation of OPC scattering (μg/m³)
DateTimeUTC,F1_M11,P_M11,Q1_M11,Q2_M11,T1_M11,T2_M11,T3_M11,T4_M11,T5_M11,U1_M11,ZSPAN_M11,X0_M11,X2_M11,X1_M11
2023-06-02 18:00:00,SystemResetWarning,0827.8,5.00,000.00,029.5,027.9,000.0,038.0,031.0,23.4,0000.0,0005.31,0001.52,0000.90
2023-06-02 18:01:00,SystemResetWarning,0827.9,5.00,000.00,029.5,027.9,000.0,038.0,031.0,23.8,0000.0,0005.32,0001.54,0000.92
2023-06-02 18:02:00,SystemResetWarning,0827.8,5.00,000.00,029.5,027.9,000.0,038.0,031.0,23.6,0000.0,0005.40,0001.62,0000.94
2023-06-02 18:03:00,SystemResetWarning,0827.9,5.00,000.00,029.5,027.9,000.0,038.0,031.0,23.5,0000.0,0004.46,0001.63,0000.93
2023-06-02 18:04:00,SystemResetWarning,0828.0,5.00,000.00,029.5,027.9,000.0,038.0,031.0,23.2,0000.0,0003.95,0001.61,0000.93
2023-06-02 18:05:00,SystemResetWarning,0827.9,5.00,000.00,029.5,027.9,000.0,038.0,031.0,23.0,0000.0,0003.49,0001.58,0000.92
2023-06-02 18:06:00,SystemResetWarning,0827.8,4.99,000.00,029.5,027.9,000.0,038.0,031.1,22.8,0000.0,0003.53,0001.61,0000.92
2023-06-02 18:07:00,SystemResetWarning,0827.8,5.00,000.00,029.5,027.9,000.0,038.0,031.1,22.8,0000.0,0003.70,0001.61,0000.92
2023-06-02 18:08:00,SystemResetWarning,0827.8,5.01,000.00,029.5,028.0,000.0,038.0,031.1,23.3,0000.0,0003.60,0001.58,0000.93
2023-06-02 18:09:00,SystemResetWarning,0827.7,5.00,000.00,029.5,028.1,000.0,038.0,031.2,22.9,0000.0,0003.43,0001.54,0000.93
2023-06-02 18:10:00,SystemResetWarning,0827.7,5.01,000.00,029.5,028.1,000.0,038.0,031.2,21.7,0000.0,0003.10,0001.52,0000.93
2023-06-02 18:11:00,SystemResetWarning,0827.7,5.00,000.00,029.6,028.2,000.0,038.0,031.2,23.1,0000.0,0003.15,0001.52,0000.94
2023-06-02 18:12:00,SystemResetWarning,0827.7,5.00,000.00,029.6,028.2,000.0,038.0,031.2,23.2,0000.0,0003.14,0001.51,0000.94
2023-06-02 18:13:00,SystemResetWarning,0827.7,4.99,000.00,029.6,028.2,000.0,038.0,031.3,23.5,0000.0,0002.88,0001.44,0000.94
2023-06-02 18:14:00,SystemResetWarning,0827.7,5.00,000.00,029.6,028.2,000.0,038.0,031.3,22.4,0000.0,0002.90,0001.42,0000.95
2023-06-02 18:15:00,SystemResetWarning,0827.7,5.01,000.00,029.6,028.3,000.0,038.0,031.3,22.2,0000.0,0002.90,0001.43,0000.95
2023-06-02 18:16:00,SystemResetWarning,0827.7,5.00,000.00,029.6,028.3,000.0,038.0,031.3,21.5,0000.0,0003.04,0001.48,0000.97
2023-06-02 18:17:00,SystemResetWarning,0827.7,5.00,000.00,029.7,028.3,000.0,038.0,031.3,22.6,0000.0,0003.07,0001.49,0000.99
2023-06-02 18:18:00,SystemResetWarning,0827.7,5.00,000.00,029.7,028.3,000.0,038.0,031.3,22.9,0000.0,0003.04,0001.55,0001.03
2023-06-02 18:19:00,SystemResetWarning,0827.7,5.00,000.00,029.7,028.3,000.0,038.0,031.4,23.8,0000.0,0002.90,0001.61,0001.08
2023-06-02 18:20:00,SystemResetWarning,0827.8,5.00,000.00,029.7,028.4,000.0,038.0,031.4,22.4,0000.0,0002.95,0001.67,0001.14
2023-06-02 18:21:00,SystemResetWarning,0827.8,5.00,000.00,029.7,028.4,000.0,038.1,031.4,22.8,0000.0,0003.09,0001.77,0001.19
2023-06-02 18:22:00,SystemResetWarning,0827.8,4.98,000.00,029.7,027.4,000.0,038.0,031.2,23.2,0000.0,0003.27,0001.86,0001.22
2023-06-02 18:23:00,SystemResetWarning,0827.8,5.00,000.00,029.7,026.0,000.0,038.0,031.0,21.9,0000.0,0003.38,0001.91,0001.23
2023-06-02 18:24:00,SystemResetWarning,0827.8,5.01,000.00,029.6,025.7,000.0,037.9,030.9,21.8,0000.0,0003.54,0001.98,0001.26
2023-06-02 18:25:00,SystemResetWarning,0827.8,5.00,000.00,029.5,025.9,000.0,037.9,030.9,20.5,0000.0,0003.53,0002.01,0001.29
2023-06-02 18:26:00,SystemResetWarning,0827.9,4.99,000.00,029.5,026.2,000.0,037.9,030.9,21.9,0000.0,0003.62,0002.03,0001.32
2023-06-02 18:27:00,SystemResetWarning,0828.0,5.00,000.00,029.5,026.5,000.0,037.9,030.9,21.0,0000.0,0003.62,0002.05,0001.33
2023-06-02 18:28:00,SystemResetWarning,0828.1,5.01,000.00,029.5,026.8,000.0,037.9,030.9,22.3,0000.0,0003.62,0002.06,0001.34
2023-06-02 18:29:00,SystemResetWarning,0828.0,5.00,000.00,029.5,027.1,000.0,037.9,031.0,22.6,0000.0,0003.56,0002.02,0001.32
2023-06-02 18:30:00,SystemResetWarning,0828.0,4.99,000.00,029.5,027.3,000.0,037.9,031.0,21.6,0000.0,0003.46,0001.96,0001.28
2023-06-02 18:31:00,SystemResetWarning,0828.1,5.00,000.00,029.5,027.5,000.0,037.9,031.1,22.4,0000.0,0003.39,0001.90,0001.24
2023-06-02 18:32:00,SystemResetWarning,0828.2,5.01,000.00,029.5,027.7,000.0,037.9,031.1,22.4,0000.0,0003.28,0001.86,0001.22
2023-06-02 18:33:00,SystemResetWarning,0828.1,5.01,000.00,029.5,027.8,000.0,037.9,031.1,23.9,0000.0,0003.02,0001.80,0001.20
2023-06-02 18:34:00,SystemResetWarning,0828.2,5.00,000.00,029.5,027.9,000.0,037.9,031.2,24.0,0000.0,0002.82,0001.72,0001.20
2023-06-02 18:35:00,SystemResetWarning,0828.2,5.00,000.00,029.5,028.0,000.0,037.9,031.2,22.8,0000.0,0002.86,0001.68,0001.18
2023-06-02 18:36:00,SystemResetWarning,0828.2,4.99,000.00,029.6,028.1,000.0,037.9,031.2,24.4,0000.0,0002.86,0001.66,0001.18
2023-06-02 18:37:00,SystemResetWarning,0828.3,5.00,000.00,029.6,028.1,000.0,037.9,031.2,25.1,0000.0,0002.81,0001.65,0001.15
2023-06-02 18:38:00,SystemResetWarning,0828.2,5.00,000.00,029.6,028.1,000.0,037.9,031.2,25.4,0000.0,0002.91,0001.67,0001.15
2023-06-02 18:39:00,SystemResetWarning,0828.3,5.00,000.00,029.6,028.1,000.0,037.9,031.2,24.7,0000.0,0002.88,0001.66,0001.15
2023-06-02 18:40:00,SystemResetWarning,0828.3,5.00,000.00,029.6,028.1,000.0,037.9,031.2,24.0,0000.0,0002.93,0001.68,0001.16
2023-06-02 18:41:00,SystemResetWarning,0828.3,5.01,000.00,029.6,028.1,000.0,037.9,031.2,24.8,0000.0,0002.98,0001.71,0001.17
2023-06-02 18:42:00,SystemResetWarning,0828.3,5.01,000.00,029.6,028.2,000.0,037.9,031.3,24.8,0000.0,0003.12,0001.79,0001.20
2023-06-02 18:43:00,SystemResetWarning,0828.3,5.00,000.00,029.6,028.2,000.0,037.9,031.3,24.7,0000.0,0003.19,0001.84,0001.21
2023-06-02 18:44:00,SystemResetWarning,0828.4,5.00,000.00,029.6,028.2,000.0,038.0,031.3,24.3,0000.0,0003.20,0001.83,0001.21
2023-06-02 18:45:00,SystemResetWarning,0828.4,5.00,000.00,029.7,028.3,000.0,038.0,031.3,26.1,0000.0,0003.49,0001.89,0001.23
2023-06-02 18:46:00,SystemResetWarning,0828.4,5.00,000.00,029.7,028.3,000.0,038.0,031.3,27.7,0000.0,0003.41,0001.91,0001.25
2023-06-02 18:47:00,SystemResetWarning,0828.4,5.00,000.00,029.7,028.3,000.0,038.0,031.4,28.2,0000.0,0003.40,0001.95,0001.28
2023-06-02 18:48:00,SystemResetWarning,0828.4,5.00,000.00,029.7,028.4,000.0,038.0,031.4,27.4,0000.0,0003.49,0001.98,0001.32
2023-06-02 18:49:00,SystemResetWarning,0828.4,5.00,000.00,029.7,028.4,000.0,038.0,031.4,28.0,0000.0,0003.50,0002.01,0001.34
2023-06-02 18:50:00,SystemResetWarning,0828.4,5.00,000.00,029.8,028.4,000.0,038.0,031.4,27.0,0000.0,0003.66,0002.09,0001.36
2023-06-02 18:51:00,SystemResetWarning,0828.4,5.00,000.00,029.8,028.4,000.0,038.1,031.4,26.0,0000.0,0003.77,0002.15,0001.37
2023-06-02 18:52:00,SystemResetWarning,0828.4,5.00,000.00,029.8,028.5,000.0,038.1,031.5,26.3,0000.0,0004.05,0002.25,0001.41
2023-06-02 18:53:00,SystemResetWarning,0828.4,5.00,000.00,029.8,028.5,000.0,038.1,031.5,25.9,0000.0,0004.11,0002.26,0001.42
2023-06-02 18:54:00,SystemResetWarning,0828.4,5.00,000.00,029.8,028.5,000.0,038.1,031.5,26.4,0000.0,0003.96,0002.20,0001.43
2023-06-02 18:55:00,SystemResetWarning,0828.4,5.00,000.00,029.9,028.5,000.0,038.1,031.5,26.6,0000.0,0003.98,0002.20,0001.44
2023-06-02 18:56:00,SystemResetWarning,0828.4,5.00,000.00,029.9,028.6,000.0,038.1,031.5,26.2,0000.0,0003.88,0002.18,0001.45
2023-06-02 18:57:00,SystemResetWarning,0828.4,4.99,000.00,029.9,028.6,000.0,038.2,031.6,26.2,0000.0,0004.38,0002.18,0001.45
2023-06-02 18:58:00,SystemResetWarning,0828.3,5.00,000.00,029.9,028.6,000.0,038.2,031.6,26.0,0000.0,0005.07,0002.17,0001.45
2023-06-02 18:59:00,SystemResetWarning,0828.4,5.00,000.00,029.9,028.6,000.0,038.2,031.6,26.4,0000.0,0005.05,0002.18,0001.46
